Roanoke, VA

1:31 PM EST on November 22, 2019 (GMT -0500)
Roanoke Regional-Woodrum

Weather History for KROA - September, 2019

Change the Weather History Date:

Tuesday, September 3, 2019

  Actual Average Record
Temperature  
Mean Temperature 77 °F 72 °F  
Max Temperature 88 °F 83 °F 101 °F (1930)
Min Temperature 65 °F 62 °F 46 °F (1919)
Degree Days  
Heating Degree Days 0 0  
Month to date heating degree days 0 0  
Since 1 July heating degree days 0 1  
Cooling Degree Days 12 8  
Month to date cooling degree days 33 24  
Year to date cooling degree days 1396 1071  
Growing Degree Days 26 (Base 50)    
Moisture  
Dew Point 64 °F    
Average Humidity 65    
Maximum Humidity 87    
Minimum Humidity 43    
Precipitation  
Precipitation 0.00 in 0.14 in 2.23 in (1981)
Month to date precipitation 0.05 0.42  
Year to date precipitation 30.75 28.55  
Snow  
Snow 0.00 in - - ()
Month to date snowfall 0.0  
Since 1 July snowfall T  
Since 1 September snowfall 0.0  
Snow Depth 0.00 in    
Sea Level Pressure  
Sea Level Pressure 30.04 in    
Wind  
Wind Speed 4 mph (ESE)    
Max Wind Speed 12 mph    
Max Gust Speed 16 mph    
Visibility 10 miles    
Events      
T = Trace of Precipitation, MM = Missing Value Source: NWS Daily Summary

Daily Weather History Graph

Daily Weather History Graph

Search for Another Location

Airport or City:

Astronomy

Sep. 03, 2019 Rise Set
Actual Time 6:51 AM EDT 7:46 PM EDT
Civil Twilight 6:25 AM EDT 8:12 PM EDT
Nautical Twilight 5:53 AM EDT 8:44 PM EDT
Astronomical Twilight 5:21 AM EDT 9:16 PM EDT
Moon 11:36 AM EDT (9/3) 10:48 PM EDT (9/3)
Length of Visible Light 13h 47m
Length of Day
12h 54m
Waxing Crescent, 24% of the Moon is Illuminated
Sep 3
Waxing Crescent
Sep 5
First Quarter
Sep 14
Full
Sep 21
Last Quarter
Sep 28
New

Hourly Weather History & Observations

Time (EDT) Temp. Heat Index Dew Point Humidity Pressure Visibility Wind Dir Wind Speed Gust Speed Precip Events Conditions
12:54 AM 75.0 °F - 64.0 °F 69% 30.04 in 10.0 mi North 6.9 mph - N/A   Scattered Clouds
1:54 AM 73.0 °F - 63.0 °F 71% 30.04 in 10.0 mi NNW 4.6 mph - N/A   Scattered Clouds
2:54 AM 72.0 °F - 64.0 °F 76% 30.04 in 10.0 mi Calm Calm - N/A   Clear
3:54 AM 69.1 °F - 64.9 °F 87% 30.02 in 10.0 mi Calm Calm - N/A   Partly Cloudy
4:54 AM 70.0 °F - 64.0 °F 81% 30.03 in 10.0 mi NE 3.5 mph - N/A   Clear
5:54 AM 66.0 °F - 63.0 °F 90% 30.04 in 10.0 mi West 3.5 mph - N/A   Clear
6:54 AM 66.0 °F - 62.1 °F 87% 30.07 in 10.0 mi Calm Calm - N/A   Clear
7:54 AM 69.1 °F - 63.0 °F 81% 30.09 in 10.0 mi NNE 8.1 mph - N/A   Clear
8:54 AM 72.0 °F - 64.0 °F 76% 30.10 in 10.0 mi SW 3.5 mph - N/A   Clear
9:54 AM 75.9 °F - 64.0 °F 67% 30.09 in 10.0 mi NE 4.6 mph - N/A   Scattered Clouds
10:54 AM 77.0 °F - 64.9 °F 66% 30.09 in 10.0 mi Variable 3.5 mph - N/A   Scattered Clouds
11:54 AM 80.1 °F 81.9 °F 64.9 °F 60% 30.08 in 10.0 mi Variable 3.5 mph - N/A   Scattered Clouds
12:54 PM 82.0 °F 83.4 °F 64.0 °F 54% 30.07 in 10.0 mi SE 5.8 mph - N/A   Scattered Clouds
1:54 PM 84.0 °F 85.4 °F 64.0 °F 51% 30.05 in 10.0 mi SE 8.1 mph - N/A   Scattered Clouds
2:54 PM 86.0 °F 86.8 °F 63.0 °F 46% 30.04 in 10.0 mi Calm Calm - N/A   Partly Cloudy
3:54 PM 87.1 °F 87.8 °F 63.0 °F 44% 30.02 in 10.0 mi SE 8.1 mph - N/A   Partly Cloudy
4:54 PM 87.1 °F 87.8 °F 63.0 °F 44% 30.01 in 10.0 mi East 11.5 mph - N/A   Partly Cloudy
5:54 PM 84.9 °F 86.1 °F 64.0 °F 49% 30.01 in 10.0 mi SE 11.5 mph - N/A   Partly Cloudy
6:54 PM 82.9 °F 84.0 °F 63.0 °F 51% 30.02 in 10.0 mi SE 8.1 mph - N/A   Partly Cloudy
7:54 PM 80.1 °F 81.2 °F 62.1 °F 54% 30.01 in 10.0 mi SE 5.8 mph - N/A   Clear
8:54 PM 79.0 °F - 63.0 °F 58% 30.01 in 10.0 mi SE 4.6 mph - N/A   Clear
9:54 PM 78.1 °F - 64.0 °F 62% 30.03 in 10.0 mi SSE 4.6 mph - N/A   Clear
10:54 PM 75.0 °F - 64.0 °F 69% 30.03 in 10.0 mi Calm Calm - N/A   Clear
11:54 PM 71.1 °F - 64.0 °F 78% 30.03 in 10.0 mi Calm Calm - N/A   Clear